Zurück zum Katalog

NAVSTAR 10

USA 5

LostNavigationMEO
NORAD 15271·PAYLOAD·🇺🇸 United States

Gestartet Sep 8, 1984 von Vandenberg Space Force Base

Loading…

Nächste Überflüge (nächste 24 Stunden)

TLE

VeraltetSource: Space-Track

Epoche: Aug 6, 2026, 00:13 UTC

1 15271U 84097A   26218.00929522 -.00000014  00000-0  00000+0 0  9997
2 15271  62.1001 289.4357 0149187 226.8130 131.8398  1.92619021297279

Verfolge NAVSTAR 10 in Echtzeit mit AllMySat

Download on the App Store